When you browse on this site, cookies collect data to enhance your experience and personalize the content and advertising you see.
Visit our Privacy Policy to learn more. By continuing to use the site, you agree to this use of cookies and data.
  • Em Portugal
  • Lista de países
  • Para 7 dias
  • Temperatura da água
  • Mapas de satélite
  • Mapa do tempo
  • Widgets de tempo
  • user-avatar
    Iniciar Sessão

    Previsão horária em Querns

    Hoje, 24 Janeiro, Quinta-feira

    Tempo Temperatura Precipitação Vento Pressão Humidade
    00:00 +27°C° 0.1 mm 2 m/s 756 mmHg 96%
    01:00 +27°C° 0.1 mm 2 m/s 756 mmHg 96%
    02:00 +27°C° 0.1 mm 2 m/s 755 mmHg 96%
    03:00 +27°C° 0.1 mm 2 m/s 755 mmHg 96%
    04:00 +26°C° 0 mm 2 m/s 755 mmHg 97%
    05:00 +27°C° 0 mm 2 m/s 756 mmHg 96%
    06:00 +27°C° 0 mm 3 m/s 756 mmHg 94%
    07:00 +27°C° 0 mm 3 m/s 756 mmHg 93%
    08:00 +29°C° 0 mm 3 m/s 756 mmHg 86%
    09:00 +30°C° 0 mm 3 m/s 756 mmHg 79%
    10:00 +33°C° 0 mm 3 m/s 756 mmHg 72%
    11:00 +34°C° 0.2 mm 4 m/s 756 mmHg 70%
    12:00 +34°C° 0.2 mm 4 m/s 755 mmHg 69%
    13:00 +35°C° 0.2 mm 4 m/s 755 mmHg 67%
    14:00 +34°C° 0.3 mm 4 m/s 755 mmHg 69%
    15:00 +34°C° 0.3 mm 4 m/s 755 mmHg 71%
    16:00 +33°C° 0.3 mm 5 m/s 755 mmHg 73%
    17:00 +32°C° 0.5 mm 4 m/s 755 mmHg 79%
    18:00 +30°C° 0.5 mm 4 m/s 755 mmHg 85%
    19:00 +28°C° 0.5 mm 3 m/s 756 mmHg 91%
    20:00 +28°C° 0.8 mm 3 m/s 756 mmHg 93%
    21:00 +28°C° 0.8 mm 3 m/s 756 mmHg 94%
    22:00 +28°C° 0.8 mm 3 m/s 757 mmHg 95%
    23:00 +28°C° 0.4 mm 2 m/s 757 mmHg 96%

    Amanhã, 25 Janeiro, Sexta-feira

    Tempo Temperatura Precipitação Vento Pressão Humidade
    00:00 +27°C° 0.4 mm 2 m/s 756 mmHg 96%
    01:00 +27°C° 0.4 mm 2 m/s 756 mmHg 96%
    02:00 +27°C° 0.3 mm 2 m/s 756 mmHg 96%
    03:00 +27°C° 0.3 mm 2 m/s 755 mmHg 96%
    04:00 +27°C° 0.3 mm 2 m/s 755 mmHg 96%
    05:00 +27°C° 0.9 mm 2 m/s 755 mmHg 96%
    06:00 +27°C° 0.9 mm 2 m/s 755 mmHg 96%
    07:00 +27°C° 0.9 mm 2 m/s 755 mmHg 96%
    08:00 +27°C° 0.5 mm 3 m/s 756 mmHg 94%
    09:00 +28°C° 0.5 mm 3 m/s 756 mmHg 92%
    10:00 +29°C° 0.5 mm 3 m/s 756 mmHg 90%
    11:00 +29°C° 1 mm 3 m/s 756 mmHg 91%
    12:00 +29°C° 1 mm 4 m/s 756 mmHg 91%
    13:00 +29°C° 1 mm 4 m/s 755 mmHg 92%
    14:00 +28°C° 1.2 mm 4 m/s 755 mmHg 93%
    15:00 +28°C° 1.2 mm 4 m/s 754 mmHg 94%
    16:00 +27°C° 1.2 mm 4 m/s 754 mmHg 94%
    17:00 +27°C° 0.6 mm 4 m/s 754 mmHg 95%
    18:00 +27°C° 0.6 mm 5 m/s 754 mmHg 95%
    19:00 +27°C° 0.6 mm 5 m/s 754 mmHg 95%
    20:00 +27°C° 2.1 mm 6 m/s 754 mmHg 95%
    21:00 +27°C° 2.1 mm 6 m/s 755 mmHg 96%
    22:00 +27°C° 2.1 mm 6 m/s 755 mmHg 96%
    23:00 +27°C° 2.3 mm 7 m/s 754 mmHg 96%

    Depois de amanhã, 26 Janeiro, Sábado

    Tempo Temperatura Precipitação Vento Pressão Humidade
    00:00 +27°C° 2.3 mm 7 m/s 754 mmHg 96%
    01:00 +27°C° 2.3 mm 7 m/s 753 mmHg 96%
    02:00 +27°C° 4.7 mm 8 m/s 752 mmHg 96%
    03:00 +27°C° 4.7 mm 9 m/s 752 mmHg 96%
    04:00 +27°C° 4.7 mm 10 m/s 751 mmHg 95%
    05:00 +27°C° 25.3 mm 10 m/s 751 mmHg 96%
    06:00 +28°C° 25.3 mm 10 m/s 752 mmHg 97%
    07:00 +28°C° 25.3 mm 10 m/s 752 mmHg 97%
    08:00 +28°C° 5.2 mm 9 m/s 752 mmHg 97%
    09:00 +28°C° 5.2 mm 8 m/s 752 mmHg 96%
    10:00 +29°C° 5.2 mm 7 m/s 753 mmHg 96%
    11:00 +29°C° 0.8 mm 6 m/s 752 mmHg 95%
    12:00 +29°C° 0.8 mm 6 m/s 752 mmHg 94%
    13:00 +29°C° 0.8 mm 5 m/s 751 mmHg 94%
    14:00 +29°C° 0.8 mm 5 m/s 751 mmHg 94%
    15:00 +29°C° 0.8 mm 4 m/s 751 mmHg 94%
    16:00 +29°C° 0.8 mm 4 m/s 750 mmHg 94%
    17:00 +29°C° 0.7 mm 3 m/s 751 mmHg 95%
    18:00 +28°C° 0.7 mm 3 m/s 751 mmHg 96%
    19:00 +28°C° 0.7 mm 2 m/s 752 mmHg 97%
    20:00 +28°C° 0.5 mm 2 m/s 752 mmHg 97%
    21:00 +27°C° 0.5 mm 2 m/s 752 mmHg 97%
    22:00 +27°C° 0.5 mm 1 m/s 753 mmHg 97%
    23:00 +27°C° 0.1 mm 1 m/s 753 mmHg 97%

    27 Janeiro, Domingo

    Tempo Temperatura Precipitação Vento Pressão Humidade
    00:00 +27°C° 0.1 mm 1 m/s 752 mmHg 97%
    01:00 +27°C° 0.1 mm 1 m/s 752 mmHg 97%
    02:00 +26°C° 0 mm 2 m/s 752 mmHg 96%
    03:00 +26°C° 0 mm 2 m/s 752 mmHg 96%
    04:00 +25°C° 0 mm 2 m/s 751 mmHg 96%
    05:00 +25°C° 0 mm 2 m/s 752 mmHg 95%
    06:00 +25°C° 0 mm 2 m/s 753 mmHg 94%
    07:00 +25°C° 0 mm 1 m/s 753 mmHg 93%
    08:00 +28°C° 0 mm 1 m/s 754 mmHg 83%
    09:00 +30°C° 0 mm 1 m/s 754 mmHg 73%
    10:00 +33°C° 0 mm 1 m/s 754 mmHg 63%
    11:00 +34°C° 0 mm 2 m/s 754 mmHg 62%
    12:00 +35°C° 0 mm 3 m/s 753 mmHg 61%
    13:00 +35°C° 0 mm 3 m/s 753 mmHg 60%
    14:00 +35°C° 0 mm 3 m/s 752 mmHg 63%
    15:00 +34°C° 0 mm 3 m/s 752 mmHg 65%
    16:00 +34°C° 0 mm 4 m/s 752 mmHg 68%
    17:00 +31°C° 0 mm 3 m/s 752 mmHg 75%
    18:00 +30°C° 0 mm 3 m/s 753 mmHg 83%
    19:00 +29°C° 0 mm 2 m/s 753 mmHg 90%
    20:00 +28°C° 0.6 mm 2 m/s 754 mmHg 92%
    21:00 +28°C° 0.6 mm 2 m/s 754 mmHg 94%
    22:00 +28°C° 0.6 mm 2 m/s 755 mmHg 96%
    23:00 +28°C° 2.4 mm 1 m/s 755 mmHg 97%

    28 Janeiro, Segunda-feira

    Tempo Temperatura Precipitação Vento Pressão Humidade
    00:00 +28°C° 2.4 mm 1 m/s 755 mmHg 97%
    01:00 +28°C° 2.4 mm 1 m/s 754 mmHg 98%
    02:00 +27°C° 0.9 mm 1 m/s 754 mmHg 97%
    03:00 +27°C° 0.9 mm 1 m/s 754 mmHg 97%
    04:00 +27°C° 0.9 mm 1 m/s 754 mmHg 97%
    05:00 +27°C° 0.1 mm 1 m/s 754 mmHg 97%
    06:00 +27°C° 0.1 mm 1 m/s 755 mmHg 96%
    07:00 +28°C° 0.1 mm 1 m/s 755 mmHg 96%
    08:00 +28°C° 0.2 mm 1 m/s 755 mmHg 93%
    09:00 +29°C° 0.2 mm 1 m/s 755 mmHg 90%
    10:00 +30°C° 0.2 mm 1 m/s 755 mmHg 87%
    11:00 +30°C° 0.3 mm 2 m/s 755 mmHg 84%
    12:00 +31°C° 0.3 mm 2 m/s 755 mmHg 81%
    13:00 +33°C° 0.3 mm 3 m/s 754 mmHg 77%
    14:00 +31°C° 1.1 mm 2 m/s 754 mmHg 83%
    15:00 +29°C° 1.1 mm 2 m/s 754 mmHg 89%
    16:00 +28°C° 1.1 mm 2 m/s 754 mmHg 95%
    17:00 +28°C° 1.2 mm 1 m/s 754 mmHg 96%
    18:00 +28°C° 1.2 mm 1 m/s 755 mmHg 97%
    19:00 +27°C° 1.2 mm 1 m/s 755 mmHg 98%
    20:00 +27°C° 1.4 mm 1 m/s 755 mmHg 98%
    21:00 +27°C° 1.4 mm 1 m/s 756 mmHg 98%
    22:00 +27°C° 1.4 mm 2 m/s 756 mmHg 98%
    23:00 +27°C° 0.9 mm 1 m/s 756 mmHg 98%

    29 Janeiro, Terça-feira

    Tempo Temperatura Precipitação Vento Pressão Humidade
    00:00 +27°C° 0.9 mm 1 m/s 755 mmHg 98%
    01:00 +27°C° 0.9 mm 1 m/s 755 mmHg 98%
    02:00 +27°C° 0.9 mm 1 m/s 754 mmHg 98%
    03:00 +27°C° 0.9 mm 1 m/s 754 mmHg 98%
    04:00 +27°C° 0.9 mm 1 m/s 754 mmHg 98%
    05:00 +27°C° 1.5 mm 1 m/s 754 mmHg 98%
    06:00 +27°C° 1.5 mm 1 m/s 754 mmHg 98%
    07:00 +27°C° 1.5 mm 1 m/s 755 mmHg 98%
    08:00 +27°C° 1.1 mm 1 m/s 755 mmHg 97%
    09:00 +28°C° 1.1 mm 1 m/s 755 mmHg 96%
    10:00 +28°C° 1.1 mm 1 m/s 755 mmHg 96%
    11:00 +29°C° 0.5 mm 1 m/s 755 mmHg 94%
    12:00 +30°C° 0.5 mm 2 m/s 754 mmHg 92%
    13:00 +30°C° 0.5 mm 2 m/s 753 mmHg 90%
    14:00 +30°C° 0.7 mm 3 m/s 753 mmHg 91%
    15:00 +30°C° 0.7 mm 3 m/s 753 mmHg 92%
    16:00 +29°C° 0.7 mm 4 m/s 752 mmHg 94%
    17:00 +29°C° 0.7 mm 3 m/s 752 mmHg 95%
    18:00 +29°C° 0.7 mm 3 m/s 753 mmHg 96%
    19:00 +28°C° 0.7 mm 3 m/s 753 mmHg 97%
    20:00 +28°C° 2 mm 3 m/s 753 mmHg 97%
    21:00 +28°C° 2 mm 3 m/s 754 mmHg 97%
    22:00 +28°C° 2 mm 3 m/s 754 mmHg 96%
    23:00 +28°C° 0.7 mm 3 m/s 754 mmHg 96%
    Mostrar mais